Change the Weather History Date:

Thursday, June 7, 2012

  Actual Average Record
Temperature  
Mean Temperature 52 °F -  
Max Temperature 56 °F 64 °F 66 °F (2004)
Min Temperature 48 °F 50 °F 39 °F (2001)
Degree Days  
Heating Degree Days 13    
Growing Degree Days 2 (Base 50)    
Moisture  
Dew Point 53 °F    
Average Humidity 98    
Maximum Humidity 100    
Minimum Humidity 88    
Precipitation  
Precipitation 0.51 in 0.07 in - ()
Sea Level Pressure  
Sea Level Pressure 29.24 in    
Wind  
Wind Speed 9 mph ()    
Max Wind Speed 20 mph    
Max Gust Speed 28 mph    
Visibility 4.4 miles    
Events Rain    
Averages and records for this station are not official NWS values.
T = Trace of Precipitation, MM = Missing Value Source: Averaged Metar Reports

Daily Weather History Graph

Daily Weather History Graph

Search for Another Location

Airport or City:

Trip Planner

Search our weather history database for the weather conditions in past years. The results will help you decide how hot, cold, wet, or windy it might be!

Date:

Astronomy

Jun. 07, 2012 Rise Set
Actual Time 4:58 AM IST 9:50 PM IST
Civil Twilight 4:07 AM IST 10:41 PM IST
Nautical Twilight 2:41 AM IST 12:09 AM IST
Astronomical Twilight Sun does not rise Sun does not rise
Moon No Moon Rise 8:31 AM IST (6/7)
Length of Visible Light 18h 33m
Length of Day
16h 51m
Waning Gibbous, 88% of the Moon is Illuminated
Jun 7
Waning Gibbous
Jun 11
Last Quarter
Jun 19
New
Jun 27
First Quarter
Jul 3
Full

Hourly Weather History & Observations

Time (IST) Temp. Dew Point Humidity Pressure Visibility Wind Dir Wind Speed Gust Speed Precip Events Conditions
12:00 AM 51.8 °F 50.0 °F 94% 29.44 in 6.2 mi SSE 3.5 mph - N/A   Mostly Cloudy
12:30 AM 50.0 °F 50.0 °F 100% 29.44 in 6.2 mi North 1.2 mph - N/A   Mostly Cloudy
1:00 AM 50.0 °F 48.2 °F 94% 29.44 in 6.2 mi Calm Calm - N/A   Mostly Cloudy
1:30 AM 50.0 °F 48.2 °F 94% 29.42 in 6.2 mi Calm Calm - N/A   Mostly Cloudy
2:00 AM 51.8 °F 50.0 °F 94% 29.42 in 6.2 mi ESE 4.6 mph - N/A   Mostly Cloudy
2:30 AM 50.0 °F 50.0 °F 100% 29.42 in 6.2 mi ESE 6.9 mph - N/A   Mostly Cloudy
3:00 AM 50.0 °F 50.0 °F 100% 29.42 in - SSE 5.8 mph - N/A   Clear
3:30 AM 51.8 °F 50.0 °F 94% 29.39 in - SSE 8.1 mph - N/A   Clear
4:00 AM 53.6 °F 50.0 °F 88% 29.39 in 6.2 mi SSE 9.2 mph - N/A   Mostly Cloudy
4:30 AM 53.6 °F 50.0 °F 88% 29.39 in 6.2 mi SE 8.1 mph - N/A   Mostly Cloudy
5:00 AM 53.6 °F 51.8 °F 94% 29.39 in 6.2 mi SE 9.2 mph - N/A Rain Light Rain
5:30 AM 53.6 °F 51.8 °F 94% 29.36 in 2.2 mi SE 10.4 mph - N/A   Light Drizzle
6:00 AM 53.6 °F 51.8 °F 94% 29.36 in 1.9 mi SE 11.5 mph - N/A Rain Light Rain
6:30 AM 51.8 °F 51.8 °F 100% 29.36 in 3.1 mi ESE 13.8 mph - N/A Rain Light Rain
7:00 AM 52 °F 52 °F 99% 29.36 in 7 mi ESE 13.4 mph - - Rain Light Rain
7:00 AM 51.8 °F 51.8 °F 100% 29.36 in 6.2 mi ESE 13.8 mph - N/A Rain Light Rain
7:30 AM 51.8 °F 51.8 °F 100% 29.33 in 6.2 mi East 13.8 mph - N/A   Light Drizzle
8:00 AM 51.8 °F 51.8 °F 100% 29.33 in 5.6 mi East 15.0 mph - N/A Rain Light Rain
8:30 AM 51.8 °F 51.8 °F 100% 29.33 in 2.2 mi East 16.1 mph - N/A Rain Light Rain
9:00 AM 51.8 °F 51.8 °F 100% 29.30 in 2.2 mi East 16.1 mph - N/A Rain Light Rain
9:30 AM 51.8 °F 51.8 °F 100% 29.30 in - East 13.8 mph - N/A Rain Light Rain
10:00 AM 51.8 °F 51.8 °F 100% 29.27 in 1.6 mi East 17.3 mph - N/A Rain Rain
10:30 AM 51.8 °F 51.8 °F 100% 29.27 in - East 17.3 mph - N/A Rain Rain
11:30 AM 53.6 °F 53.6 °F 100% 29.21 in 5.0 mi ESE 17.3 mph - N/A Rain Light Rain
12:00 PM 53.6 °F 53.6 °F 100% 29.21 in 3.7 mi East 16.1 mph - N/A Rain Light Rain
12:30 PM 53.6 °F 53.6 °F 100% 29.18 in 2.8 mi East 18.4 mph - N/A Rain Light Rain
1:00 PM 55 °F 54 °F 97% 29.20 in 3 mi ESE 17.9 mph - - Rain Light Rain
1:00 PM 55.4 °F 53.6 °F 94% 29.18 in 3.1 mi ESE 18.4 mph - N/A Rain Light Rain
1:30 PM 55.4 °F 55.4 °F 100% 29.18 in 3.1 mi East 17.3 mph - N/A Rain Light Rain
2:00 PM 55.4 °F 55.4 °F 100% 29.18 in 1.9 mi ESE 19.6 mph - N/A Rain Light Rain
2:30 PM 55.4 °F 55.4 °F 100% 29.18 in 2.5 mi ESE 15.0 mph - N/A Rain Light Rain
3:00 PM 55.4 °F 55.4 °F 100% 29.15 in 2.5 mi East 16.1 mph - N/A Rain Light Rain
3:30 PM 55.4 °F 55.4 °F 100% 29.15 in 1.0 mi East 15.0 mph - N/A Rain Light Rain
4:00 PM 55.4 °F 55.4 °F 100% 29.15 in 5.6 mi ESE 16.1 mph - N/A Rain Light Rain
4:30 PM 55.4 °F 55.4 °F 100% 29.12 in 6.2 mi East 15.0 mph - N/A Rain Light Rain
5:00 PM 55.4 °F 55.4 °F 100% 29.12 in 6.2 mi East 15.0 mph - N/A Rain Light Rain
5:30 PM 55.4 °F 55.4 °F 100% 29.12 in 6.2 mi East 13.8 mph - N/A Rain Light Rain
6:00 PM 57.2 °F 55.4 °F 94% 29.09 in 6.2 mi East 15.0 mph - N/A Rain Light Rain
6:30 PM 55.4 °F 55.4 °F 100% 29.09 in 6.2 mi ENE 13.8 mph - N/A Rain Light Rain
7:00 PM 55 °F 54 °F 98% 29.11 in 6 mi East 15.7 mph - - Rain Light Rain
7:00 PM 55.4 °F 55.4 °F 100% 29.09 in 5.6 mi ENE 15.0 mph 27.6 mph N/A Rain Light Rain
7:30 PM 55.4 °F 53.6 °F 94% 29.09 in 5.6 mi ENE 12.7 mph - N/A Rain Light Rain
8:00 PM 55.4 °F 53.6 °F 94% 29.09 in 3.7 mi ENE 12.7 mph - N/A Rain Light Rain
8:30 PM 55.4 °F 53.6 °F 94% 29.09 in 3.1 mi ENE 12.7 mph - N/A Rain Light Rain
9:00 PM 55.4 °F 53.6 °F 94% 29.06 in 3.1 mi ENE 11.5 mph - N/A Rain Light Rain
9:30 PM 53.6 °F 53.6 °F 100% 29.06 in - ENE 12.7 mph - N/A Rain Light Rain
10:00 PM 53.6 °F 53.6 °F 100% 29.06 in 2.5 mi NE 11.5 mph - N/A Rain Light Rain
10:30 PM 53.6 °F 53.6 °F 100% 29.06 in 2.5 mi NE 11.5 mph - N/A Rain Light Rain
11:00 PM 53.6 °F 53.6 °F 100% 29.06 in 2.5 mi NE 9.2 mph - N/A   Light Drizzle
11:30 PM 53.6 °F 53.6 °F 100% 29.03 in 2.5 mi NE 8.1 mph - N/A   Light Drizzle